Regional Weather Roundup
Issued by NWS Little Rock, AR

Home | Current Version | Previous Version | Graphics & Text | Print | Product List | Glossary On
Versions: 1 2 3 4 5 6 7 8 9 10 11 12 13 14 15 16 17 18 19 20 21 22 23 24 25 26 27 28 29 30 31 32 33 34 35 36 37 38 39 40 41 42 43 44 45 46 47 48 49 50
000
ASUS44 KLZK 021905
RWRLZK

WEATHER ROUNDUP FOR ARKANSAS
NATIONAL WEATHER SERVICE LITTLE ROCK AR
200 PM CDT THU JUL 02 2015

NOTE: "FAIR" INDICATES FEW OR NO CLOUDS BELOW 12,000 FEET WITH NO
SIGNIFICANT WEATHER AND/OR OBSTRUCTIONS TO VISIBILITY.

ARZ001-003-010-029-022000-
NORTHWEST ARKANSAS

CITY           SKY/WX    TMP DP  RH WIND       PRES   REMARKS
FAYETTEVILLE   PTSUNNY   85  74  69 SW13      29.90S HX  92
FORT SMITH     PTSUNNY   88  71  57 W15G21    29.88F HX  94
HARRISON       CLOUDY    81  74  79 W3        29.91R HX  86
BENTONVILLE    CLOUDY    84  72  65 NW8       29.91S HX  89
ROGERS         CLOUDY    83  74  74 NW8       29.91S HX  89
SILOAM SPGS    CLOUDY    84  72  65 W10G16      N/A  HX  89
HIGHFILL       CLOUDY    86  74  67 SW13      29.90S HX  94
SPRINGDALE     PTSUNNY   84  73  70 W10G16    29.92S HX  91
$$

ARZ004-005-016-022000-
NORTH CENTRAL ARKANSAS

CITY           SKY/WX    TMP DP  RH WIND       PRES   REMARKS
BATESVILLE     CLOUDY    88  73  62 SW15G22   29.86S HX  96
FLIPPIN        CLOUDY    84  73  70 SW7       29.85F HX  91
MTN HOME       CLOUDY    81  75  82 NW3       29.87S HX  87
$$

ARZ040-041-022000-
WEST CENTRAL ARKANSAS

CITY           SKY/WX    TMP DP  RH WIND       PRES   REMARKS
MENA           MOSUNNY   88  68  51 SW9G16    29.96S HX  91
MOUNT IDA      MOSUNNY   85  68  56 W8G20     29.92S HX  88
$$

ARZ009-017-025-026-028-022000-
NORTHEAST ARKANSAS

CITY           SKY/WX    TMP DP  RH WIND       PRES   REMARKS
JONESBORO      MOSUNNY   83  73  72 SW8       29.86S HX  89
NEWPORT        PTSUNNY   87  75  67 SW10      29.87R HX  96
WALNUT RIDGE   CLOUDY    82  72  69 S12       29.85S HX  87
BLYTHEVILLE    CLOUDY    83  72  69 SW8G17    29.87S HX  88
$$

ARZ022-023-033-042-044-022000-
CENTRAL ARKANSAS

CITY           SKY/WX    TMP DP  RH WIND       PRES   REMARKS
LITTLE ROCK    MOSUNNY   91  65  41 W18G29    29.89F HX  93
N LITTLE ROCK  MOSUNNY   87  72  61 SW12G22   29.89F HX  94
JACKSONVILLE   PTSUNNY   88  70  56 SW14      29.88F HX  93
SEARCY         PTSUNNY   88  73  61 SW10G20   29.87F HX  95
HOT SPRINGS    MOSUNNY   88  69  53 SW16G23   29.93F HX  92
RUSSELLVILLE   CLOUDY    88  72  58 SW8       29.87F HX  94
CLINTON        FAIR      88  75  66 SW10      29.89R HX  97
$$

ARZ036-022000-
EAST ARKANSAS

CITY           SKY/WX    TMP DP  RH WIND       PRES   REMARKS
WEST MEMPHIS   CLOUDY    83  72  69 SW10      29.87F HX  88
$$

ARZ050-053-066-070-073-022000-
SOUTHWEST ARKANSAS

CITY           SKY/WX    TMP DP  RH WIND       PRES   REMARKS
ARKADELPHIA    FAIR      89  70  53 SW15      29.94F HX  94
CAMDEN         PTSUNNY   90  68  48 MISG      29.95  HX  93
TEXARKANA      SUNNY     89  68  49 SW16G26   29.96F HX  93
EL DORADO      SUNNY     87  69  54 SW14G22   29.98F HX  91
DE QUEEN       PTSUNNY   89  68  49 SW15G26   29.92F HX  93
$$

ARZ056-057-069-022000-
SOUTHEAST ARKANSAS

CITY           SKY/WX    TMP DP  RH WIND       PRES   REMARKS
PINE BLUFF     MOSUNNY   86  70  58 SW16G25   29.92F HX  90
STUTTGART      SUNNY     90  70  51 MISG      29.89F HX  95
MONTICELLO     PTSUNNY   86  71  60 SW16G26   29.95F HX  91

$$





USA.gov is the U.S. government's official web portal to all federal, state and local government web resources and services.